Regional Weather Roundup
Issued by NWS

Home | Current Version | Previous Version | Text Only | Print | Product List | Glossary Off
Versions: 1 2 3 4 5 6 7 8 9 10 11 12 13 14 15 16 17 18 19 20 21 22 23 24 25 26 27 28 29 30 31 32 33 34 35 36 37 38 39 40 41 42 43 44 45 46 47 48 49 50

000
ASUS43 KOAX 100510
RWRNE

WEATHER ROUNDUP FOR NEBRASKA
NATIONAL WEATHER SERVICE OMAHA NE
1100 PM CST FRI DEC 09 2016

NOTES: SATELLITE DATA IS BEING USED TO AUGMENT CLOUD COVER ABOVE
       12000 FEET.
       "FAIR" INDICATES FEW OR NO CLOUDS BELOW 12,000 FEET WITH NO
       SIGNIFICANT WEATHER AND/OR OBSTRUCTIONS TO VISIBILITY.

  * THESE STATIONS DO NOT REPORT WEATHER SUCH AS RAIN...SNOW OR FOG.

NEZ001>004-019>022-054>056-100600-
NEBRASKA PANHANDLE

CITY           SKY/WX    TMP DP  RH WIND       PRES   REMARKS
SCOTTSBLUFF    CLOUDY    14   5  67 E12       30.17F WCI   0
ALLIANCE       CLOUDY     7   3  84 NE6       30.19F WCI  -3
CHADRON        LGT SNOW   4  -1  80 NE8       30.27S WCI  -9
KIMBALL        CLOUDY    20  17  85 S7        30.13S WCI  12
SIDNEY         CLOUDY    19  12  74 SE3       30.17R
$$

NEZ057>060-069>072-079>082-100600-
SOUTHWEST NEBRASKA

CITY           SKY/WX    TMP DP  RH WIND       PRES   REMARKS
NORTH PLATTE   CLOUDY    15  11  83 E6        30.30R WCI   6
IMPERIAL       CLOUDY    20  13  74 E8        30.23F WCI  10
LEXINGTON      CLOUDY    15  10  82 E7        30.33S WCI   5
MCCOOK         CLOUDY    15  10  80 E8        30.28F WCI   4
OGALLALA       CLOUDY    21  15  78 NE6       30.24F WCI  13
$$

NEZ005>010-023>029-035>040-094-100600-
NORTH CENTRAL NEBRASKA

CITY           SKY/WX    TMP DP  RH WIND       PRES   REMARKS
VALENTINE      CLOUDY     5   1  83 N7        30.38R WCI  -7
AINSWORTH      CLOUDY     9   7  90 NE7       30.36S WCI  -2
BROKEN BOW     CLOUDY    15  11  83 CALM      30.32F
O`NEILL        FLURRIES  12   9  90 NE9       30.42S WCI  -1
ORD            CLOUDY    12   6  77 CALM      30.37S
THEDFORD       FLURRIES  10   8  89 NE6       30.33S WCI   1
$$

NEZ041-046>049-061>064-073>077-083>087-100600-
SOUTH CENTRAL NEBRASKA

CITY           SKY/WX    TMP DP  RH WIND       PRES   REMARKS
GRAND ISLAND   CLOUDY    18  14  84 SE7       30.40S WCI   9
AURORA         CLOUDY    17  11  80 S3        30.41R
HASTINGS       CLOUDY    18  12  77 SE8       30.39F WCI   8
HEBRON         CLOUDY    15  11  85 CALM      30.44R
HOLDREGE       CLOUDY    12   8  84 SE6       30.34S WCI   2
KEARNEY *      CLOUDY    12   7  79 E7        30.37S WCI   2
YORK           CLOUDY    19  14  79 S6        30.43R WCI  11
$$

NEZ011>018-030>034-042>045-100600-
NORTHEAST NEBRASKA

CITY           SKY/WX    TMP DP  RH WIND       PRES   REMARKS
NORFOLK        CLOUDY    17  10  74 SE3       30.44R
ALBION         CLOUDY    12   8  83 E8        30.41F WCI   1
BLAIR          CLOUDY    22  14  71 CALM      30.47R
FREMONT        CLOUDY    22  14  71 SE3       30.48R
TEKAMAH        CLOUDY    20  13  74 CALM      30.50R
WAYNE          CLOUDY    18  13  79 CALM      30.47R
$$

NEZ050>053-065>068-078-088>093-100600-
SOUTHEAST NEBRASKA

CITY           SKY/WX    TMP DP  RH WIND       PRES   REMARKS
LINCOLN        CLOUDY    23  14  68 E3        30.49R
OMAHA EPPLEY   CLOUDY    22  12  65 SE7       30.50S WCI  13
BEATRICE       CLOUDY    25  15  64 SE3       30.45S
FALLS CITY     CLOUDY    25  14  63 SE3       30.49S
NEBRASKA CITY  CLOUDY    23  10  57 SE5       30.47F WCI  17
PLATTSMOUTH    CLOUDY    23  11  61 SE5       30.47F WCI  17
$$

NEZ044-045-051>053-067-100600-
OMAHA AREA

CITY           SKY/WX    TMP DP  RH WIND       PRES   REMARKS
OMAHA EPPLEY   CLOUDY    22  12  65 SE7       30.50S WCI  13
BLAIR          CLOUDY    22  14  71 CALM      30.47R
FREMONT        CLOUDY    22  14  71 SE3       30.48R
MILLARD        CLOUDY    25  14  64 CALM      30.49S
OFFUTT AFB     CLOUDY    22  14  71 E5        30.48F WCI  16
PLATTSMOUTH    CLOUDY    23  11  61 SE5       30.47F WCI  17
WAHOO          CLOUDY    22  14  71 SE6       30.47S WCI  14
$$




USA.gov is the U.S. government's official web portal to all federal, state and local government web resources and services.